• In Belarus
  • List of Countries
  • For 7 days
  • Water Temperature
  • Satellite Maps
  • Weather Map
  • Weather Widgets
  • user-avatar
    Login

    Hourly Weather Yurenevo

    Today, 22 June, Friday

    Time Temperature Precipitation Wind Pressure Humidity
    00:00 +15°C° 0 mm 2 mps 741 mmHg 95%
    01:00 +14°C° 0 mm 3 mps 740 mmHg 94%
    02:00 +14°C° 0 mm 3 mps 740 mmHg 93%
    03:00 +16°C° 0 mm 3 mps 740 mmHg 88%
    04:00 +17°C° 0 mm 4 mps 739 mmHg 84%
    05:00 +18°C° 0 mm 4 mps 739 mmHg 79%
    06:00 +20°C° 0 mm 5 mps 739 mmHg 73%
    07:00 +22°C° 0 mm 5 mps 739 mmHg 66%
    08:00 +24°C° 0 mm 6 mps 738 mmHg 60%
    09:00 +24°C° 0.2 mm 6 mps 738 mmHg 62%
    10:00 +26°C° 0.2 mm 6 mps 738 mmHg 63%
    11:00 +27°C° 0.2 mm 6 mps 738 mmHg 65%
    12:00 +25°C° 0.8 mm 5 mps 738 mmHg 73%
    13:00 +23°C° 0.8 mm 4 mps 738 mmHg 82%
    14:00 +22°C° 0.8 mm 4 mps 738 mmHg 90%
    15:00 +22°C° 0.5 mm 4 mps 738 mmHg 89%
    16:00 +21°C° 0.5 mm 3 mps 738 mmHg 89%
    17:00 +21°C° 0.5 mm 3 mps 738 mmHg 88%
    18:00 +20°C° 0.2 mm 3 mps 739 mmHg 89%
    19:00 +19°C° 0.2 mm 2 mps 739 mmHg 90%
    20:00 +18°C° 0.2 mm 2 mps 739 mmHg 91%
    21:00 +17°C° 0 mm 2 mps 740 mmHg 90%
    22:00 +16°C° 0 mm 2 mps 740 mmHg 90%
    23:00 +14°C° 0 mm 2 mps 741 mmHg 89%

    Tomorrow, 23 June, Saturday

    Time Temperature Precipitation Wind Pressure Humidity
    00:00 +13°C° 0 mm 2 mps 741 mmHg 89%
    01:00 +12°C° 0 mm 2 mps 741 mmHg 89%
    02:00 +10°C° 0 mm 2 mps 742 mmHg 89%
    03:00 +12°C° 0 mm 1 mps 742 mmHg 87%
    04:00 +12°C° 0 mm 1 mps 743 mmHg 86%
    05:00 +13°C° 0 mm 1 mps 743 mmHg 84%
    06:00 +15°C° 0 mm 1 mps 743 mmHg 75%
    07:00 +18°C° 0 mm 1 mps 743 mmHg 66%
    08:00 +20°C° 0 mm 1 mps 744 mmHg 56%
    09:00 +20°C° 0 mm 1 mps 744 mmHg 55%
    10:00 +20°C° 0 mm 1 mps 744 mmHg 54%
    11:00 +19°C° 0 mm 0 mps 744 mmHg 53%
    12:00 +20°C° 0 mm 1 mps 743 mmHg 58%
    13:00 +19°C° 0 mm 1 mps 743 mmHg 62%
    14:00 +19°C° 0 mm 1 mps 743 mmHg 66%
    15:00 +18°C° 0.1 mm 1 mps 743 mmHg 71%
    16:00 +16°C° 0.1 mm 1 mps 742 mmHg 75%
    17:00 +16°C° 0.1 mm 2 mps 742 mmHg 79%
    18:00 +15°C° 0.2 mm 2 mps 742 mmHg 83%
    19:00 +14°C° 0.2 mm 2 mps 742 mmHg 86%
    20:00 +14°C° 0.2 mm 2 mps 742 mmHg 89%
    21:00 +14°C° 0.2 mm 2 mps 741 mmHg 90%
    22:00 +13°C° 0.2 mm 2 mps 741 mmHg 91%
    23:00 +13°C° 0.2 mm 2 mps 741 mmHg 92%

    Day after tomorrow, 24 June, Sunday

    Time Temperature Precipitation Wind Pressure Humidity
    00:00 +12°C° 0.8 mm 3 mps 740 mmHg 94%
    01:00 +12°C° 0.8 mm 3 mps 740 mmHg 95%
    02:00 +12°C° 0.8 mm 3 mps 740 mmHg 97%
    03:00 +13°C° 1.8 mm 3 mps 739 mmHg 97%
    04:00 +13°C° 1.8 mm 3 mps 738 mmHg 97%
    05:00 +14°C° 1.8 mm 3 mps 738 mmHg 98%
    06:00 +17°C° 0.3 mm 3 mps 737 mmHg 95%
    07:00 +19°C° 0.3 mm 3 mps 737 mmHg 92%
    08:00 +21°C° 0.3 mm 4 mps 737 mmHg 89%
    09:00 +21°C° 0.2 mm 4 mps 736 mmHg 85%
    10:00 +22°C° 0.2 mm 5 mps 736 mmHg 81%
    11:00 +23°C° 0.2 mm 5 mps 736 mmHg 77%
    12:00 +22°C° 0.6 mm 5 mps 736 mmHg 82%
    13:00 +21°C° 0.6 mm 5 mps 736 mmHg 87%
    14:00 +20°C° 0.6 mm 5 mps 737 mmHg 92%
    15:00 +19°C° 0.2 mm 5 mps 737 mmHg 88%
    16:00 +17°C° 0.2 mm 5 mps 738 mmHg 84%
    17:00 +17°C° 0.2 mm 6 mps 738 mmHg 80%
    18:00 +16°C° 0 mm 5 mps 739 mmHg 78%
    19:00 +15°C° 0 mm 5 mps 740 mmHg 76%
    20:00 +13°C° 0 mm 4 mps 741 mmHg 73%
    21:00 +12°C° 0 mm 4 mps 742 mmHg 77%
    22:00 +11°C° 0 mm 4 mps 742 mmHg 80%
    23:00 +10°C° 0 mm 3 mps 743 mmHg 84%

    25 June, Monday

    Time Temperature Precipitation Wind Pressure Humidity
    00:00 +10°C° 0 mm 3 mps 743 mmHg 87%
    01:00 +9°C° 0 mm 3 mps 744 mmHg 90%
    02:00 +8°C° 0 mm 3 mps 744 mmHg 93%
    03:00 +9°C° 0 mm 3 mps 745 mmHg 90%
    04:00 +9°C° 0 mm 3 mps 745 mmHg 87%
    05:00 +10°C° 0 mm 3 mps 746 mmHg 85%
    06:00 +13°C° 0 mm 2 mps 746 mmHg 78%
    07:00 +15°C° 0 mm 2 mps 746 mmHg 70%
    08:00 +17°C° 0 mm 2 mps 746 mmHg 63%
    09:00 +18°C° 0 mm 3 mps 746 mmHg 58%
    10:00 +19°C° 0 mm 3 mps 746 mmHg 53%
    11:00 +21°C° 0 mm 3 mps 746 mmHg 49%
    12:00 +22°C° 0 mm 3 mps 746 mmHg 47%
    13:00 +22°C° 0 mm 3 mps 746 mmHg 46%
    14:00 +24°C° 0 mm 3 mps 746 mmHg 45%
    15:00 +23°C° 0.1 mm 2 mps 746 mmHg 52%
    16:00 +21°C° 0.1 mm 2 mps 746 mmHg 58%
    17:00 +21°C° 0.1 mm 1 mps 746 mmHg 65%
    18:00 +20°C° 0.1 mm 1 mps 746 mmHg 72%
    19:00 +18°C° 0.1 mm 1 mps 746 mmHg 78%
    20:00 +16°C° 0.1 mm 1 mps 746 mmHg 85%
    21:00 +15°C° 0 mm 1 mps 746 mmHg 88%
    22:00 +14°C° 0 mm 1 mps 747 mmHg 90%
    23:00 +13°C° 0 mm 1 mps 747 mmHg 93%

    26 June, Tuesday

    Time Temperature Precipitation Wind Pressure Humidity
    00:00 +12°C° 0 mm 1 mps 747 mmHg 94%
    01:00 +12°C° 0 mm 1 mps 747 mmHg 95%
    02:00 +11°C° 0 mm 1 mps 747 mmHg 95%
    03:00 +12°C° 0 mm 1 mps 747 mmHg 94%
    04:00 +13°C° 0 mm 1 mps 747 mmHg 92%
    05:00 +13°C° 0 mm 1 mps 747 mmHg 91%
    06:00 +15°C° 0.1 mm 1 mps 747 mmHg 84%
    07:00 +17°C° 0.1 mm 2 mps 747 mmHg 77%
    08:00 +19°C° 0.1 mm 2 mps 747 mmHg 70%
    09:00 +20°C° 0.4 mm 2 mps 747 mmHg 68%
    10:00 +20°C° 0.4 mm 2 mps 747 mmHg 67%
    11:00 +21°C° 0.4 mm 3 mps 747 mmHg 66%
    12:00 +21°C° 0.8 mm 2 mps 747 mmHg 66%
    13:00 +21°C° 0.8 mm 2 mps 747 mmHg 67%
    14:00 +21°C° 0.8 mm 2 mps 747 mmHg 67%
    15:00 +21°C° 0.5 mm 2 mps 747 mmHg 70%
    16:00 +20°C° 0.5 mm 2 mps 747 mmHg 72%
    17:00 +20°C° 0.5 mm 2 mps 747 mmHg 75%
    18:00 +19°C° 0.4 mm 2 mps 747 mmHg 80%
    19:00 +18°C° 0.4 mm 1 mps 747 mmHg 86%
    20:00 +16°C° 0.4 mm 1 mps 747 mmHg 91%
    21:00 +15°C° 0 mm 1 mps 747 mmHg 92%
    22:00 +14°C° 0 mm 1 mps 747 mmHg 93%
    23:00 +13°C° 0 mm 1 mps 747 mmHg 94%

    27 June, Wednesday

    Time Temperature Precipitation Wind Pressure Humidity
    00:00 +13°C° 0 mm 1 mps 747 mmHg 95%
    01:00 +12°C° 0 mm 1 mps 748 mmHg 95%
    02:00 +11°C° 0 mm 0 mps 748 mmHg 96%
    03:00 +12°C° 0 mm 0 mps 748 mmHg 95%
    04:00 +12°C° 0 mm 0 mps 748 mmHg 94%
    05:00 +13°C° 0 mm 0 mps 748 mmHg 93%
    06:00 +15°C° 0 mm 0 mps 748 mmHg 86%
    07:00 +18°C° 0 mm 1 mps 748 mmHg 80%
    08:00 +20°C° 0 mm 1 mps 748 mmHg 73%
    09:00 +22°C° 0 mm 1 mps 748 mmHg 64%
    10:00 +23°C° 0 mm 1 mps 748 mmHg 55%
    11:00 +25°C° 0 mm 1 mps 748 mmHg 46%
    12:00 +25°C° 0 mm 1 mps 748 mmHg 45%
    13:00 +26°C° 0 mm 1 mps 748 mmHg 43%
    14:00 +25°C° 0 mm 0 mps 748 mmHg 42%
    15:00 +24°C° 0 mm 0 mps 748 mmHg 46%
    16:00 +23°C° 0 mm 0 mps 748 mmHg 50%
    17:00 +22°C° 0 mm 0 mps 748 mmHg 55%
    18:00 +23°C° 0 mm 1 mps 748 mmHg 60%
    19:00 +21°C° 0 mm 1 mps 748 mmHg 65%
    20:00 +19°C° 0 mm 1 mps 748 mmHg 71%
    21:00 +18°C° 0 mm 1 mps 748 mmHg 73%
    22:00 +16°C° 0 mm 1 mps 748 mmHg 76%
    23:00 +15°C° 0 mm 1 mps 748 mmHg 79%
    Show more